QPF
0.00 0.00 0.00 0.00 0.00 0.00 0.00 0.00 0.00 0.00 0.00 0.00 0.00 0.00 0.00 0.00 0.00 0.00 0.00 0.00 0.00 0.00 0.00 0.01 0.01 0.01 0.01 0.01 0.01 0.01 0.02 0.02 0.02 0.01 0.01 0.00 0.00 0.00 0.01 0.00 0.01 0.01 0.01
0.00 0.00 0.00 0.00 0.00 0.00 0.00 0.00 0.00 0.00 0.00 0.00 0.00 0.00 0.00 0.00 0.00 0.00 0.00 0.00 0.00 0.00 0.00 0.00 0.00 0.01 0.01 0.01 0.01 0.01 0.01 0.02 0.01 0.01 0.01 0.01 0.01 0.01 0.01 0.01 0.00 0.00 0.01
0.00 0.00 0.00 0.00 0.00 0.00 0.00 0.00 0.00 0.00 0.00 0.00 0.00 0.00 0.00 0.00 0.00 0.00 0.00 0.00 0.00 0.00 0.00 0.00 0.00 0.00 0.00 0.00 0.00 0.01 0.01 0.01 0.01 0.01 0.01 0.01 0.01 0.01 0.01 0.00 0.01 0.01 0.01
0.00 0.00 0.00 0.00 0.00 0.00 0.00 0.00 0.00 0.00 0.00 0.00 0.00 0.00 0.00 0.00 0.00 0.00 0.00 0.00 0.00 0.00 0.00 0.00 0.00 0.00 0.00 0.00 0.00 0.00 0.00 0.01 0.01 0.01 0.01 0.01 0.01 0.00 0.00 0.00 0.01 0.01 0.01
0.00 0.00 0.00 0.00 0.00 0.00 0.00 0.00 0.00 0.00 0.00 0.00 0.00 0.00 0.00 0.00 0.00 0.00 0.00 0.00 0.00 0.00 0.00 0.00 0.00 0.00 0.00 0.00 0.00 0.00 0.00 0.00 0.01 0.01 0.01 0.01 0.01 0.00 0.00 0.00 0.00 0.00 0.00
0.00 0.00 0.00 0.00 0.00 0.00 0.00 0.00 0.00 0.00 0.00 0.00 0.00 0.00 0.00 0.00 0.00 0.00 0.00 0.00 0.00 0.00 0.00 0.00 0.00 0.00 0.00 0.00 0.00 0.00 0.00 0.00 0.00 0.00 0.00 0.00 0.00 0.00 0.00 0.00 0.00 0.00 0.00
0.00 0.00 0.00 0.00 0.00 0.00 0.00 0.00 0.00 0.00 0.00 0.00 0.00 0.00 0.00 0.00 0.00 0.00 0.00 0.00 0.00 0.00 0.00 0.00 0.00 0.00 0.00 0.00 0.00 0.00 0.00 0.00 0.00 0.00 0.00 0.00 0.00 0.00 0.00 0.00 0.00 0.00 0.00
0.00 0.00 0.00 0.00 0.00 0.00 0.00 0.00 0.00 0.00 0.00 0.00 0.00 0.00 0.00 0.00 0.00 0.00 0.00 0.00 0.00 0.00 0.00 0.00 0.00 0.00 0.00 0.00 0.00 0.00 0.00 0.00 0.00 0.00 0.00 0.00 0.00 0.00 0.00 0.00 0.00 0.00 0.00
0.00 0.00 0.00 0.00 0.00 0.00 0.00 0.00 0.00 0.00 0.00 0.00 0.00 0.00 0.00 0.00 0.00 0.00 0.00 0.00 0.00 0.00 0.00 0.00 0.00 0.00 0.00 0.00 0.00 0.00 0.00 0.00 0.00 0.00 0.00 0.00 0.00 0.00 0.00 0.00 0.00 0.00 0.01
0.00 0.00 0.00 0.00 0.00 0.00 0.00 0.00 0.00 0.00 0.00 0.00 0.00 0.00 0.00 0.00 0.00 0.00 0.00 0.00 0.00 0.00 0.00 0.00 0.00 0.00 0.00 0.00 0.00 0.00 0.00 0.00 0.00 0.00 0.00 0.00 0.00 0.00 0.00 0.00 0.00 0.01 0.01
0.00 0.00 0.00 0.00 0.00 0.00 0.00 0.00 0.00 0.00 0.00 0.00 0.00 0.00 0.00 0.00 0.00 0.00 0.00 0.00 0.00 0.00 0.00 0.00 0.00 0.00 0.01 0.01 0.01 0.00 0.00 0.00 0.00 0.00 0.00 0.00 0.01 0.01 0.01 0.01 0.01 0.01 0.01
0.00 0.00 0.00 0.00 0.00 0.00 0.00 0.00 0.00 0.00 0.00 0.01 0.01 0.01 0.00 0.00 0.00 0.00 0.00 0.00 0.00 0.00 0.01 0.01 0.01 0.01 0.01 0.01 0.01 0.01 0.01 0.00 0.00 0.00 0.00 0.00 0.00 0.00 0.00 0.00 0.00 0.00 0.01
0.00 0.00 0.00 0.00 0.00 0.00 0.00 0.00 0.00 0.00 0.00 0.00 0.01 0.01 0.01 0.00 0.00 0.00 0.01 0.01 0.01 0.01 0.01 0.01 0.01 0.01 0.01 0.01 0.01 0.01 0.01 0.00 0.00 0.00 0.00 0.00 0.00 0.00 0.00 0.00 0.00 0.00 0.00
0.00 0.00 0.00 0.00 0.00 0.00 0.00 0.00 0.00 0.00 0.00 0.00 0.01 0.01 0.01 0.01 0.01 0.01 0.01 0.01 0.01 0.01 0.01 0.01 0.01 0.01 0.01 0.01 0.01 0.01 0.00 0.00 0.00 0.00 0.00 0.00 0.00 0.00 0.00 0.00 0.00 0.00 0.00
0.00 0.00 0.00 0.00 0.00 0.00 0.00 0.00 0.00 0.00 0.00 0.00 0.00 0.01 0.01 0.01 0.01 0.01 0.01 0.01 0.01 0.01 0.01 0.01 0.01 0.01 0.01 0.01 0.01 0.01 0.01 0.01 0.00 0.00 0.00 0.00 0.00 0.00 0.00 0.00 0.00 0.00 0.00
0.00 0.00 0.00 0.00 0.00 0.00 0.00 0.00 0.00 0.00 0.00 0.00 0.00 0.01 0.01 0.01 0.01 0.02 0.02 0.02 0.02 0.02 0.02 0.02 0.01 0.01 0.01 0.01 0.01 0.01 0.01 0.01 0.00 0.00 0.00 0.00 0.00 0.00 0.00 0.00 0.00 0.00 0.00
0.00 0.00 0.00 0.00 0.00 0.00 0.00 0.00 0.00 0.00 0.00 0.00 0.00 0.01 0.01 0.01 0.01 0.01 0.01 0.01 0.02 0.02 0.02 0.01 0.01 0.01 0.01 0.01 0.01 0.01 0.01 0.01 0.01 0.01 0.00 0.00 0.00 0.00 0.00 0.00 0.00 0.00 0.00
0.00 0.00 0.00 0.00 0.00 0.00 0.00 0.00 0.00 0.00 0.00 0.00 0.00 0.01 0.01 0.01 0.01 0.01 0.01 0.01 0.01 0.01 0.01 0.01 0.00 0.00 0.01 0.01 0.01 0.01 0.01 0.01 0.01 0.01 0.01 0.01 0.00 0.00 0.00 0.00 0.00 0.00 0.00
0.00 0.00 0.00 0.00 0.00 0.01 0.01 0.01 0.00 0.00 0.00 0.00 0.01 0.01 0.01 0.01 0.01 0.01 0.01 0.01 0.01 0.01 0.01 0.01 0.01 0.01 0.01 0.01 0.01 0.01 0.01 0.01 0.01 0.01 0.01 0.01 0.00 0.00 0.00 0.00 0.00 0.00 0.00
0.00 0.00 0.00 0.00 0.00 0.01 0.01 0.01 0.01 0.01 0.01 0.01 0.01 0.01 0.01 0.01 0.01 0.01 0.01 0.01 0.01 0.01 0.01 0.01 0.01 0.01 0.01 0.01 0.01 0.01 0.01 0.01 0.01 0.01 0.01 0.01 0.00 0.00 0.01 0.00 0.00 0.01 0.01
0.00 0.00 0.00 0.00 0.00 0.01 0.01 0.01 0.01 0.01 0.01 0.01 0.01 0.01 0.02 0.02 0.01 0.01 0.01 0.01 0.01 0.01 0.01 0.01 0.01 0.01 0.01 0.01 0.01 0.01 0.01 0.01 0.01 0.01 0.01 0.01 0.01 0.01 0.01 0.01 0.01 0.01 0.01
0.00 0.00 0.00 0.00 0.00 0.01 0.01 0.01 0.01 0.01 0.01 0.01 0.01 0.02 0.02 0.02 0.02 0.01 0.01 0.02 0.02 0.02 0.01 0.02 0.01 0.01 0.01 0.01 0.01 0.01 0.01 0.01 0.01 0.01 0.01 0.01 0.01 0.01 0.01 0.01 0.01 0.01 0.01
0.00 0.00 0.00 0.00 0.01 0.01 0.01 0.01 0.01 0.01 0.01 0.02 0.02 0.02 0.02 0.02 0.02 0.01 0.01 0.01 0.02 0.01 0.01 0.01 0.01 0.01 0.01 0.01 0.01 0.01 0.01 0.01 0.01 0.01 0.02 0.01 0.01 0.01 0.01 0.01 0.01 0.01 0.01
0.00 0.00 0.00 0.00 0.01 0.01 0.01 0.01 0.01 0.02 0.02 0.02 0.02 0.02 0.02 0.01 0.01 0.01 0.01 0.01 0.02 0.02 0.01 0.01 0.01 0.01 0.01 0.01 0.01 0.01 0.01 0.01 0.01 0.01 0.01 0.01 0.01 0.01 0.01 0.01 0.01 0.01 0.01
0.01 0.01 0.01 0.01 0.01 0.01 0.01 0.01 0.01 0.01 0.02 0.02 0.02 0.01 0.01 0.02 0.01 0.01 0.01 0.02 0.02 0.01 0.01 0.01 0.01 0.01 0.01 0.01 0.01 0.01 0.01 0.01 0.01 0.01 0.01 0.02 0.01 0.01 0.01 0.01 0.01 0.01 0.01
0.02 0.02 0.02 0.02 0.02 0.02 0.02 0.02 0.02 0.02 0.02 0.02 0.02 0.02 0.02 0.02 0.02 0.02 0.02 0.02 0.01 0.01 0.01 0.01 0.01 0.01 0.01 0.01 0.01 0.01 0.01 0.01 0.01 0.01 0.01 0.02 0.01 0.01 0.01 0.01 0.01 0.01 0.01
MSLP
1020.88 1021.04 1021.21 1021.37 1021.53 1021.67 1021.80 1021.92 1022.03 1022.13 1022.23 1022.32 1022.40 1022.48 1022.53 1022.58 1022.61 1022.64 1022.68 1022.73 1022.79 1022.87 1022.97 1023.07 1023.16 1023.24 1023.28 1023.28 1023.25 1023.18 1023.08 1022.96 1022.82 1022.66 1022.47 1022.25 1021.98 1021.66 1021.28 1020.86 1020.39 1019.90 1019.40
1020.45 1020.56 1020.69 1020.82 1020.96 1021.11 1021.25 1021.39 1021.53 1021.65 1021.77 1021.87 1021.96 1022.02 1022.07 1022.11 1022.13 1022.16 1022.19 1022.24 1022.31 1022.39 1022.50 1022.61 1022.72 1022.81 1022.89 1022.93 1022.95 1022.94 1022.90 1022.84 1022.75 1022.63 1022.46 1022.25 1021.99 1021.66 1021.28 1020.84 1020.36 1019.85 1019.34
1020.12 1020.19 1020.27 1020.38 1020.49 1020.63 1020.76 1020.90 1021.04 1021.16 1021.27 1021.36 1021.43 1021.48 1021.51 1021.52 1021.54 1021.55 1021.59 1021.64 1021.71 1021.81 1021.93 1022.06 1022.19 1022.31 1022.41 1022.50 1022.57 1022.61 1022.63 1022.62 1022.58 1022.51 1022.38 1022.19 1021.94 1021.62 1021.23 1020.78 1020.30 1019.79 1019.27
1019.92 1019.95 1020.00 1020.06 1020.15 1020.25 1020.36 1020.48 1020.58 1020.68 1020.76 1020.81 1020.84 1020.86 1020.86 1020.85 1020.85 1020.87 1020.90 1020.97 1021.07 1021.19 1021.33 1021.48 1021.63 1021.77 1021.91 1022.03 1022.13 1022.21 1022.28 1022.32 1022.32 1022.29 1022.19 1022.04 1021.81 1021.51 1021.14 1020.71 1020.23 1019.72 1019.21
1019.84 1019.85 1019.86 1019.88 1019.93 1019.98 1020.05 1020.11 1020.17 1020.22 1020.24 1020.24 1020.22 1020.19 1020.16 1020.13 1020.12 1020.14 1020.20 1020.29 1020.42 1020.57 1020.74 1020.91 1021.09 1021.25 1021.40 1021.53 1021.66 1021.76 1021.85 1021.92 1021.96 1021.96 1021.91 1021.79 1021.60 1021.33 1020.99 1020.59 1020.15 1019.66 1019.16
1019.85 1019.84 1019.82 1019.81 1019.80 1019.81 1019.82 1019.82 1019.82 1019.79 1019.75 1019.69 1019.61 1019.53 1019.46 1019.41 1019.40 1019.43 1019.50 1019.63 1019.79 1019.98 1020.18 1020.38 1020.57 1020.74 1020.90 1021.03 1021.15 1021.26 1021.36 1021.44 1021.50 1021.53 1021.51 1021.44 1021.29 1021.08 1020.80 1020.45 1020.05 1019.61 1019.14
1019.90 1019.87 1019.83 1019.78 1019.74 1019.69 1019.64 1019.58 1019.51 1019.42 1019.31 1019.18 1019.05 1018.92 1018.81 1018.74 1018.72 1018.76 1018.86 1019.01 1019.20 1019.42 1019.65 1019.87 1020.07 1020.24 1020.39 1020.51 1020.62 1020.71 1020.80 1020.89 1020.96 1021.01 1021.03 1021.00 1020.91 1020.76 1020.55 1020.27 1019.93 1019.55 1019.13
1019.95 1019.91 1019.85 1019.77 1019.69 1019.60 1019.51 1019.40 1019.27 1019.12 1018.95 1018.77 1018.58 1018.40 1018.26 1018.16 1018.13 1018.17 1018.27 1018.44 1018.66 1018.89 1019.13 1019.36 1019.56 1019.72 1019.85 1019.96 1020.04 1020.11 1020.19 1020.27 1020.34 1020.41 1020.46 1020.48 1020.46 1020.38 1020.24 1020.04 1019.79 1019.48 1019.12
1019.95 1019.90 1019.83 1019.74 1019.63 1019.52 1019.40 1019.25 1019.09 1018.89 1018.68 1018.45 1018.21 1018.00 1017.81 1017.69 1017.63 1017.66 1017.76 1017.92 1018.14 1018.38 1018.62 1018.85 1019.04 1019.19 1019.30 1019.37 1019.43 1019.49 1019.54 1019.62 1019.70 1019.79 1019.87 1019.94 1019.97 1019.96 1019.90 1019.78 1019.60 1019.37 1019.07
1019.88 1019.83 1019.76 1019.66 1019.55 1019.43 1019.29 1019.13 1018.95 1018.73 1018.49 1018.22 1017.95 1017.69 1017.47 1017.31 1017.22 1017.22 1017.29 1017.44 1017.64 1017.87 1018.10 1018.31 1018.49 1018.63 1018.72 1018.78 1018.82 1018.86 1018.91 1018.98 1019.07 1019.17 1019.28 1019.39 1019.48 1019.53 1019.54 1019.49 1019.38 1019.21 1018.98
1019.76 1019.71 1019.63 1019.54 1019.43 1019.31 1019.18 1019.02 1018.82 1018.60 1018.34 1018.05 1017.75 1017.46 1017.20 1016.99 1016.86 1016.82 1016.85 1016.97 1017.14 1017.35 1017.57 1017.77 1017.94 1018.06 1018.15 1018.21 1018.24 1018.28 1018.33 1018.40 1018.49 1018.61 1018.75 1018.89 1019.02 1019.11 1019.17 1019.18 1019.12 1019.01 1018.82
1019.59 1019.54 1019.46 1019.37 1019.27 1019.16 1019.03 1018.87 1018.68 1018.46 1018.19 1017.88 1017.55 1017.23 1016.93 1016.68 1016.51 1016.41 1016.41 1016.49 1016.64 1016.82 1017.02 1017.22 1017.39 1017.52 1017.61 1017.67 1017.72 1017.76 1017.82 1017.90 1018.01 1018.14 1018.30 1018.46 1018.61 1018.74 1018.83 1018.87 1018.85 1018.76 1018.61
1019.40 1019.33 1019.25 1019.15 1019.05 1018.95 1018.82 1018.67 1018.48 1018.25 1017.97 1017.65 1017.30 1016.94 1016.61 1016.32 1016.10 1015.97 1015.93 1015.98 1016.10 1016.28 1016.47 1016.67 1016.85 1017.00 1017.11 1017.19 1017.26 1017.32 1017.39 1017.49 1017.61 1017.76 1017.92 1018.10 1018.27 1018.41 1018.51 1018.57 1018.57 1018.50 1018.36
1019.19 1019.10 1018.99 1018.89 1018.78 1018.66 1018.53 1018.37 1018.18 1017.93 1017.64 1017.30 1016.92 1016.54 1016.18 1015.86 1015.61 1015.45 1015.39 1015.42 1015.53 1015.70 1015.91 1016.12 1016.32 1016.50 1016.64 1016.75 1016.84 1016.93 1017.03 1017.14 1017.28 1017.44 1017.62 1017.80 1017.98 1018.13 1018.24 1018.30 1018.30 1018.23 1018.09
1018.95 1018.82 1018.69 1018.56 1018.42 1018.29 1018.13 1017.95 1017.74 1017.47 1017.15 1016.79 1016.39 1015.98 1015.60 1015.26 1015.00 1014.83 1014.76 1014.79 1014.91 1015.10 1015.32 1015.56 1015.79 1015.99 1016.17 1016.31 1016.43 1016.55 1016.67 1016.80 1016.96 1017.14 1017.34 1017.54 1017.72 1017.88 1018.00 1018.06 1018.05 1017.97 1017.81
1018.66 1018.49 1018.32 1018.15 1017.98 1017.81 1017.62 1017.41 1017.16 1016.86 1016.51 1016.12 1015.70 1015.28 1014.88 1014.54 1014.28 1014.11 1014.05 1014.10 1014.24 1014.44 1014.69 1014.95 1015.21 1015.44 1015.64 1015.81 1015.97 1016.11 1016.25 1016.42 1016.60 1016.81 1017.03 1017.25 1017.46 1017.64 1017.77 1017.83 1017.82 1017.73 1017.55
1018.28 1018.08 1017.87 1017.66 1017.46 1017.25 1017.02 1016.76 1016.47 1016.13 1015.75 1015.33 1014.89 1014.46 1014.06 1013.73 1013.48 1013.33 1013.29 1013.35 1013.51 1013.73 1014.00 1014.28 1014.55 1014.80 1015.02 1015.21 1015.38 1015.55 1015.73 1015.92 1016.14 1016.39 1016.65 1016.91 1017.16 1017.37 1017.52 1017.60 1017.59 1017.48 1017.28
1017.80 1017.56 1017.33 1017.09 1016.85 1016.60 1016.33 1016.03 1015.70 1015.32 1014.91 1014.46 1014.01 1013.58 1013.19 1012.87 1012.64 1012.51 1012.49 1012.57 1012.74 1012.97 1013.24 1013.52 1013.79 1014.04 1014.27 1014.47 1014.66 1014.85 1015.06 1015.29 1015.56 1015.85 1016.17 1016.49 1016.78 1017.04 1017.22 1017.32 1017.32 1017.21 1016.99
1017.20 1016.95 1016.70 1016.44 1016.18 1015.90 1015.59 1015.26 1014.89 1014.48 1014.04 1013.58 1013.13 1012.70 1012.32 1012.02 1011.81 1011.70 1011.70 1011.79 1011.96 1012.18 1012.43 1012.69 1012.94 1013.17 1013.39 1013.59 1013.78 1014.00 1014.24 1014.52 1014.85 1015.20 1015.59 1015.97 1016.33 1016.63 1016.85 1016.98 1016.99 1016.87 1016.63
1016.49 1016.24 1015.98 1015.72 1015.45 1015.15 1014.83 1014.47 1014.07 1013.65 1013.19 1012.73 1012.28 1011.87 1011.51 1011.23 1011.04 1010.94 1010.94 1011.02 1011.17 1011.36 1011.58 1011.80 1012.01 1012.21 1012.40 1012.59 1012.80 1013.04 1013.32 1013.65 1014.04 1014.47 1014.92 1015.37 1015.79 1016.14 1016.40 1016.55 1016.57 1016.45 1016.19
1015.69 1015.45 1015.20 1014.95 1014.68 1014.38 1014.04 1013.67 1013.27 1012.83 1012.38 1011.93 1011.49 1011.10 1010.76 1010.50 1010.32 1010.23 1010.22 1010.29 1010.40 1010.54 1010.71 1010.87 1011.04 1011.20 1011.36 1011.54 1011.76 1012.02 1012.35 1012.74 1013.19 1013.68 1014.20 1014.71 1015.18 1015.57 1015.86 1016.02 1016.04 1015.91 1015.64
1014.82 1014.60 1014.38 1014.14 1013.88 1013.58 1013.24 1012.87 1012.47 1012.03 1011.59 1011.16 1010.75 1010.38 1010.07 1009.83 1009.67 1009.58 1009.55 1009.58 1009.65 1009.74 1009.85 1009.95 1010.06 1010.18 1010.32 1010.50 1010.73 1011.02 1011.39 1011.83 1012.34 1012.90 1013.47 1014.03 1014.53 1014.94 1015.24 1015.40 1015.40 1015.26 1014.98
1013.93 1013.73 1013.53 1013.30 1013.04 1012.75 1012.42 1012.05 1011.65 1011.23 1010.81 1010.40 1010.02 1009.68 1009.41 1009.19 1009.04 1008.95 1008.91 1008.91 1008.93 1008.97 1009.01 1009.07 1009.13 1009.22 1009.34 1009.52 1009.77 1010.10 1010.51 1011.00 1011.56 1012.15 1012.76 1013.34 1013.85 1014.26 1014.54 1014.68 1014.67 1014.51 1014.21
1013.04 1012.86 1012.66 1012.44 1012.18 1011.89 1011.55 1011.19 1010.79 1010.39 1009.99 1009.61 1009.27 1008.97 1008.73 1008.54 1008.41 1008.31 1008.26 1008.23 1008.22 1008.21 1008.21 1008.23 1008.26 1008.33 1008.45 1008.64 1008.92 1009.28 1009.73 1010.26 1010.85 1011.47 1012.08 1012.66 1013.15 1013.54 1013.79 1013.90 1013.86 1013.68 1013.38
1012.16 1011.98 1011.78 1011.56 1011.29 1010.99 1010.65 1010.28 1009.89 1009.50 1009.13 1008.78 1008.48 1008.22 1008.01 1007.85 1007.73 1007.65 1007.59 1007.54 1007.51 1007.47 1007.45 1007.44 1007.46 1007.53 1007.66 1007.88 1008.18 1008.57 1009.05 1009.61 1010.21 1010.83 1011.43 1011.98 1012.44 1012.78 1012.99 1013.06 1013.00 1012.81 1012.53
1011.31 1011.12 1010.91 1010.66 1010.38 1010.06 1009.70 1009.33 1008.95 1008.57 1008.22 1007.90 1007.63 1007.40 1007.23 1007.10 1007.00 1006.93 1006.88 1006.83 1006.79 1006.75 1006.72 1006.71 1006.74 1006.82 1006.97 1007.21 1007.55 1007.97 1008.47 1009.03 1009.62 1010.22 1010.79 1011.29 1011.70 1011.99 1012.16 1012.20 1012.12 1011.95 1011.70
Thickness
5546 5545 5544 5543 5542 5541 5540 5539 5538 5537 5536 5534 5533 5531 5530 5528 5527 5525 5524 5522 5520 5518 5517 5516 5514 5512 5510 5508 5507 5505 5503 5502 5503 5503 5501 5500 5499 5498 5497 5497 5496 5496 5495
5539 5538 5537 5536 5534 5533 5532 5531 5530 5528 5527 5525 5524 5522 5520 5518 5517 5515 5512 5511 5509 5507 5505 5503 5502 5500 5498 5496 5494 5492 5491 5489 5488 5489 5488 5486 5485 5484 5483 5482 5482 5481 5481
5533 5531 5530 5529 5527 5526 5525 5524 5522 5520 5518 5516 5514 5512 5511 5509 5506 5504 5502 5500 5498 5496 5494 5491 5489 5487 5485 5483 5481 5479 5478 5477 5475 5474 5474 5472 5471 5470 5469 5468 5468 5467 5467
5526 5524 5523 5522 5521 5520 5518 5516 5514 5512 5510 5507 5505 5503 5501 5499 5497 5494 5492 5489 5487 5485 5482 5480 5478 5475 5474 5471 5470 5467 5465 5463 5462 5461 5460 5458 5456 5455 5454 5453 5453 5453 5453
5519 5518 5517 5516 5514 5512 5511 5508 5506 5504 5502 5499 5497 5494 5492 5489 5487 5484 5482 5479 5476 5474 5471 5469 5467 5465 5463 5460 5458 5455 5453 5451 5449 5448 5446 5444 5442 5440 5438 5437 5437 5437 5438
5512 5511 5510 5508 5507 5505 5503 5500 5498 5495 5493 5490 5487 5484 5482 5480 5479 5477 5473 5469 5466 5463 5460 5457 5455 5453 5451 5450 5448 5445 5443 5440 5437 5435 5433 5430 5428 5425 5423 5422 5420 5421 5422
5504 5503 5502 5500 5498 5496 5494 5491 5489 5486 5484 5480 5478 5475 5473 5471 5469 5467 5464 5460 5456 5453 5449 5446 5445 5443 5440 5437 5435 5433 5431 5428 5426 5423 5419 5417 5414 5412 5409 5407 5405 5403 5403
5496 5494 5493 5491 5490 5487 5485 5482 5480 5477 5474 5471 5469 5466 5463 5461 5459 5457 5454 5450 5446 5443 5439 5436 5433 5430 5428 5425 5422 5419 5416 5414 5413 5410 5407 5404 5401 5399 5396 5394 5391 5390 5390
5487 5486 5484 5482 5480 5478 5475 5473 5471 5467 5465 5462 5459 5456 5453 5451 5450 5447 5444 5439 5435 5432 5428 5425 5422 5419 5417 5415 5412 5408 5405 5402 5400 5398 5395 5392 5389 5386 5384 5380 5377 5376 5376
5479 5477 5475 5473 5471 5468 5466 5464 5461 5458 5455 5452 5449 5446 5443 5441 5440 5438 5434 5429 5425 5421 5418 5415 5413 5410 5407 5405 5401 5397 5394 5390 5388 5385 5382 5379 5376 5373 5370 5366 5363 5360 5358
5469 5467 5465 5463 5461 5459 5456 5453 5450 5447 5444 5441 5438 5436 5433 5431 5430 5428 5425 5420 5416 5412 5408 5404 5401 5400 5398 5395 5392 5387 5384 5381 5377 5373 5369 5366 5363 5360 5357 5353 5350 5347 5344
5459 5457 5455 5453 5451 5449 5445 5442 5439 5435 5432 5429 5427 5425 5423 5420 5419 5417 5415 5412 5408 5403 5400 5396 5393 5390 5388 5385 5381 5378 5375 5371 5366 5362 5358 5355 5351 5348 5345 5342 5339 5336 5333
5448 5446 5444 5442 5440 5437 5434 5431 5428 5424 5421 5419 5416 5415 5414 5411 5408 5407 5405 5403 5400 5395 5391 5388 5384 5381 5378 5374 5371 5368 5364 5359 5355 5351 5348 5344 5341 5337 5335 5332 5329 5327 5324
5437 5435 5433 5430 5429 5426 5423 5420 5417 5414 5411 5409 5407 5406 5404 5401 5398 5396 5394 5392 5390 5386 5381 5378 5375 5372 5368 5364 5361 5357 5353 5349 5345 5342 5338 5334 5331 5327 5324 5322 5319 5317 5315
5426 5424 5421 5419 5417 5415 5413 5410 5408 5406 5402 5400 5399 5396 5394 5392 5392 5389 5384 5382 5378 5375 5371 5366 5363 5359 5356 5353 5349 5346 5343 5339 5336 5332 5328 5325 5321 5318 5314 5311 5308 5305 5303
5415 5413 5410 5408 5405 5403 5401 5400 5399 5397 5395 5393 5391 5388 5386 5385 5383 5381 5378 5374 5371 5367 5362 5358 5354 5351 5348 5344 5341 5337 5334 5331 5327 5323 5319 5315 5312 5308 5304 5301 5298 5295 5293
5404 5402 5399 5397 5395 5392 5390 5388 5388 5388 5386 5384 5382 5380 5378 5376 5374 5372 5369 5366 5362 5359 5354 5350 5346 5343 5340 5336 5333 5329 5326 5323 5319 5315 5311 5307 5303 5299 5295 5292 5289 5286 5284
5394 5392 5390 5387 5384 5382 5379 5377 5376 5375 5375 5374 5373 5371 5369 5367 5365 5363 5360 5357 5353 5350 5346 5343 5339 5336 5332 5329 5326 5322 5319 5315 5311 5307 5303 5299 5294 5290 5286 5283 5280 5277 5275
5384 5381 5379 5376 5374 5371 5369 5367 5365 5364 5363 5363 5362 5360 5359 5357 5356 5354 5351 5347 5344 5341 5338 5335 5332 5329 5326 5322 5319 5315 5311 5308 5304 5300 5295 5291 5287 5282 5278 5275 5272 5271 5269
5374 5372 5370 5366 5364 5362 5360 5358 5356 5354 5353 5352 5352 5350 5349 5347 5346 5344 5342 5339 5336 5334 5332 5329 5326 5323 5320 5316 5312 5308 5304 5301 5297 5293 5289 5284 5280 5276 5272 5269 5266 5263 5262
5363 5361 5360 5357 5354 5353 5351 5349 5347 5346 5345 5344 5344 5342 5341 5339 5338 5337 5334 5332 5330 5328 5325 5322 5320 5317 5314 5310 5306 5302 5298 5294 5291 5286 5282 5278 5273 5269 5266 5263 5260 5258 5256
5353 5350 5349 5346 5345 5344 5342 5341 5339 5338 5337 5336 5336 5335 5335 5332 5331 5329 5327 5326 5324 5322 5319 5316 5314 5311 5309 5305 5301 5297 5293 5289 5285 5281 5276 5272 5268 5264 5261 5258 5255 5253 5251
5342 5340 5339 5337 5336 5336 5335 5333 5331 5330 5330 5329 5328 5328 5327 5326 5324 5323 5321 5319 5317 5315 5313 5310 5308 5305 5303 5300 5296 5292 5289 5285 5281 5276 5272 5267 5263 5259 5256 5253 5251 5249 5247
5332 5331 5329 5328 5327 5326 5325 5325 5324 5323 5323 5322 5321 5321 5320 5319 5318 5316 5315 5313 5311 5309 5307 5304 5302 5299 5296 5294 5290 5287 5284 5280 5276 5272 5267 5263 5259 5256 5252 5249 5247 5245 5243
5323 5322 5320 5319 5319 5318 5318 5317 5317 5316 5316 5316 5315 5315 5314 5312 5311 5310 5308 5306 5305 5303 5301 5298 5296 5293 5291 5288 5285 5282 5278 5275 5271 5267 5263 5259 5255 5252 5248 5246 5244 5242 5240
5315 5314 5313 5312 5312 5311 5311 5311 5311 5310 5310 5310 5309 5308 5307 5305 5304 5303 5301 5300 5298 5296 5294 5292 5290 5288 5285 5282 5279 5276 5273 5270 5267 5263 5259 5255 5252 5248 5245 5243 5240 5238 5236